, AK

(GMT )
Denali Park

Weather History for PAIN - January, 2013

Change the Weather History Date:

Tuesday, January 8, 2013

  Actual Average Record
Temperature  
Mean Temperature 2 °F -  
Max Temperature 10 °F 10 °F 44 °F (1981)
Min Temperature -7 °F -4 °F -44 °F (1952)
Degree Days  
Heating Degree Days 64    
Moisture  
Dew Point 3 °F    
Average Humidity 91    
Maximum Humidity 100    
Minimum Humidity 84    
Precipitation  
Precipitation 0.00 in - - ()
Sea Level Pressure  
Sea Level Pressure 29.71 in    
Wind  
Wind Speed 1 mph (North)    
Max Wind Speed 9 mph    
Max Gust Speed -    
Visibility 6 miles    
Events      
Averages and records for this station are not official NWS values.
T = Trace of Precipitation, MM = Missing Value Source: NWS Daily Summary

Daily Weather History Graph

Daily Weather History Graph

Search for Another Location

Airport or City:

Trip Planner

Search our weather history database for the weather conditions in past years. The results will help you decide how hot, cold, wet, or windy it might be!

Date:

Astronomy

Jan. 08, 2013 Rise Set
Actual Time 10:30 AM AKST 3:34 PM AKST
Civil Twilight 9:21 AM AKST 4:44 PM AKST
Nautical Twilight 8:16 AM AKST 5:49 PM AKST
Astronomical Twilight 7:18 AM AKST 6:46 PM AKST
Moon 7:09 AM AKST (1/8) 12:49 PM AKST (1/8)
Length of Visible Light 7h 23m
Length of Day
5h 04m
Waning Crescent, 12% of the Moon is Illuminated
Jan 8
Waning Crescent
Jan 11
New
Jan 18
First Quarter
Jan 26
Full
Feb 3
Last Quarter

Hourly Weather History & Observations

Time (AKST) Temp. Windchill Dew Point Humidity Pressure Visibility Wind Dir Wind Speed Gust Speed Precip Events Conditions
12:16 AM -2.2 °F - -5.8 °F 85% 29.40 in 10.0 mi Calm Calm - N/A   Clear
12:36 AM -2.2 °F - -5.8 °F 85% 29.41 in 10.0 mi Calm Calm - N/A   Clear
12:56 AM -2.2 °F - -5.8 °F 85% 29.42 in 10.0 mi Calm Calm - N/A   Clear
1:16 AM -4.0 °F - -7.6 °F 85% 29.44 in 10.0 mi Calm Calm - N/A   Clear
1:36 AM -4.0 °F - -7.6 °F 85% 29.44 in 10.0 mi Calm Calm - N/A   Clear
1:56 AM -5.8 °F - -7.6 °F 92% 29.45 in 10.0 mi Calm Calm - N/A   Clear
2:16 AM -5.8 °F - -9.4 °F 84% 29.46 in 10.0 mi Calm Calm - N/A   Clear
2:36 AM -5.8 °F - -9.4 °F 84% 29.47 in 10.0 mi Calm Calm - N/A   Clear
2:56 AM -5.8 °F - -9.4 °F 84% 29.48 in 10.0 mi Calm Calm - N/A   Clear
3:16 AM -7.6 °F - -9.4 °F 92% 29.48 in 10.0 mi Calm Calm - N/A   Clear
3:36 AM -7.6 °F - -9.4 °F 92% 29.49 in 10.0 mi Calm Calm - N/A   Clear
3:56 AM -7.6 °F - -9.4 °F 92% 29.50 in 10.0 mi Calm Calm - N/A   Partly Cloudy
4:16 AM -7.6 °F - -9.4 °F 92% 29.51 in 10.0 mi Calm Calm - N/A   Mostly Cloudy
4:36 AM -5.8 °F - -7.6 °F 92% 29.52 in 10.0 mi Calm Calm - N/A   Overcast
4:56 AM -4.0 °F - -5.8 °F 92% 29.53 in 10.0 mi Calm Calm - N/A   Overcast
5:16 AM -2.2 °F -14.2 °F -2.2 °F 100% 29.53 in 10.0 mi North 5.8 mph - N/A   Overcast
5:36 AM 3.2 °F -7.8 °F 1.4 °F 92% 29.54 in 10.0 mi North 5.8 mph - N/A   Overcast
5:56 AM 3.2 °F -9.1 °F 3.2 °F 100% 29.55 in 10.0 mi North 6.9 mph - N/A   Overcast
6:16 AM 5.0 °F -6.9 °F 3.2 °F 92% 29.56 in 10.0 mi North 6.9 mph - N/A   Overcast
6:36 AM 6.8 °F -4.8 °F 3.2 °F 85% 29.57 in 10.0 mi North 6.9 mph - N/A   Overcast
6:56 AM 6.8 °F -6.9 °F 3.2 °F 85% 29.58 in 10.0 mi North 9.2 mph - N/A   Overcast
7:16 AM 6.8 °F -3.5 °F 3.2 °F 85% 29.59 in 10.0 mi North 5.8 mph - N/A   Overcast
7:36 AM 5.0 °F -5.6 °F 3.2 °F 92% 29.60 in 10.0 mi North 5.8 mph - N/A   Overcast
7:56 AM 5.0 °F -5.6 °F 3.2 °F 92% 29.61 in 8.0 mi North 5.8 mph - N/A   Overcast
8:16 AM 6.8 °F -3.5 °F 3.2 °F 85% 29.62 in 7.0 mi North 5.8 mph - N/A   Overcast
8:36 AM 6.8 °F -3.5 °F 3.2 °F 85% 29.63 in 7.0 mi North 5.8 mph - N/A   Overcast
8:56 AM 6.8 °F -2.0 °F 3.2 °F 85% 29.64 in 7.0 mi North 4.6 mph - N/A   Overcast
9:16 AM 6.8 °F -2.0 °F 5.0 °F 92% 29.65 in 7.0 mi North 4.6 mph - N/A   Overcast
9:56 AM 6.8 °F -2.0 °F 5.0 °F 92% 29.67 in 3.0 mi NNW 4.6 mph - N/A   Overcast
10:16 AM 6.8 °F -0.1 °F 5.0 °F 92% 29.68 in 10.0 mi North 3.5 mph - N/A   Overcast
10:56 AM 3.2 °F - 1.4 °F 92% 29.70 in 10.0 mi Calm Calm - N/A   Overcast
11:16 AM 3.2 °F - 1.4 °F 92% 29.71 in 10.0 mi Calm Calm - N/A   Mostly Cloudy
11:36 AM 3.2 °F - 1.4 °F 92% 29.72 in 9.0 mi Calm Calm - N/A   Overcast
11:56 AM 5.0 °F - 3.2 °F 92% 29.73 in 8.0 mi Calm Calm - N/A   Overcast
12:16 PM 5.0 °F - 3.2 °F 92% 29.74 in 2.5 mi Calm Calm - N/A   Mostly Cloudy
12:36 PM 5.0 °F - 3.2 °F 92% 29.75 in 5.0 mi Calm Calm - N/A   Overcast
12:56 PM 5.0 °F - 3.2 °F 92% 29.76 in 5.0 mi Calm Calm - N/A   Overcast
1:16 PM 6.8 °F - 3.2 °F 85% 29.76 in 5.0 mi Calm Calm - N/A   Overcast
1:36 PM 6.8 °F - 3.2 °F 85% 29.77 in 2.5 mi Calm Calm - N/A   Overcast
1:56 PM 6.8 °F - 5.0 °F 92% 29.78 in 2.0 mi Calm Calm - N/A   Overcast
2:16 PM 6.8 °F - 6.8 °F 100% 29.78 in 2.0 mi Calm Calm - N/A   Overcast
2:36 PM 8.6 °F - 6.8 °F 92% 29.79 in 2.0 mi Calm Calm - N/A   Overcast
2:56 PM 8.6 °F - 6.8 °F 92% 29.79 in 2.5 mi Calm Calm - N/A   Overcast
3:16 PM 8.6 °F - 6.8 °F 92% 29.80 in 5.0 mi Calm Calm - N/A   Overcast
3:36 PM 8.6 °F - 6.8 °F 92% 29.80 in 3.0 mi Calm Calm - N/A   Overcast
3:56 PM 8.6 °F - 6.8 °F 92% 29.81 in 2.0 mi Calm Calm - N/A   Overcast
4:16 PM 8.6 °F 2.0 °F 8.6 °F 100% 29.82 in 2.5 mi NNW 3.5 mph - N/A   Overcast
4:36 PM 10.4 °F 2.2 °F 8.6 °F 92% 29.83 in 5.0 mi North 4.6 mph - N/A   Overcast
4:56 PM 10.4 °F 0.8 °F 8.6 °F 92% 29.83 in 5.0 mi North 5.8 mph - N/A   Overcast
5:16 PM 10.4 °F -0.4 °F 8.6 °F 92% 29.84 in 9.0 mi NNW 6.9 mph - N/A   Overcast
5:36 PM 10.4 °F - 8.6 °F 92% 29.85 in 5.0 mi Calm Calm - N/A   Overcast
5:56 PM 10.4 °F - 8.6 °F 92% 29.86 in 3.0 mi Calm Calm - N/A   Overcast
6:16 PM 10.4 °F - 8.6 °F 92% 29.86 in 8.0 mi Calm Calm - N/A   Overcast
6:36 PM 10.4 °F - 8.6 °F 92% 29.86 in 5.0 mi Calm Calm - N/A   Overcast
6:56 PM 10.4 °F - 8.6 °F 92% 29.87 in 3.0 mi Calm Calm - N/A   Overcast
7:16 PM 10.4 °F - 8.6 °F 92% 29.88 in 2.5 mi Calm Calm - N/A   Overcast
7:36 PM 10.4 °F - 8.6 °F 92% 29.88 in 4.0 mi Calm Calm - N/A   Overcast
7:56 PM 10.4 °F - 8.6 °F 92% 29.88 in 4.0 mi Calm Calm - N/A   Overcast
8:16 PM 10.4 °F - 8.6 °F 92% 29.89 in 3.0 mi Calm Calm - N/A   Overcast
8:36 PM 10.4 °F - 8.6 °F 92% 29.91 in 2.5 mi Calm Calm - N/A   Overcast
8:56 PM 8.6 °F - 8.6 °F 100% 29.91 in 2.0 mi Calm Calm - N/A   Overcast
9:16 PM 8.6 °F - 6.8 °F 92% 29.91 in 2.5 mi Calm Calm - N/A   Overcast
9:36 PM 8.6 °F - 6.8 °F 92% 29.92 in 5.0 mi Calm Calm - N/A   Overcast
9:56 PM 8.6 °F -1.3 °F 8.6 °F 100% 29.92 in 4.0 mi North 5.8 mph - N/A   Overcast
10:16 PM 10.4 °F 4.0 °F 8.6 °F 92% 29.94 in 3.0 mi North 3.5 mph - N/A   Overcast
10:36 PM 8.6 °F -2.6 °F 8.6 °F 100% 29.94 in 7.0 mi North 6.9 mph - N/A   Overcast
10:56 PM 10.4 °F 2.2 °F 8.6 °F 92% 29.95 in 7.0 mi North 4.6 mph - N/A   Overcast
11:16 PM 10.4 °F - 8.6 °F 92% 29.96 in 5.0 mi Calm Calm - N/A   Overcast
11:36 PM 10.4 °F - 8.6 °F 92% 29.96 in 3.0 mi Calm Calm - N/A   Overcast
11:56 PM 10.4 °F - 8.6 °F 92% 29.97 in 2.0 mi Calm Calm - N/A   Overcast